| time (UTC) | temp F | wind direction | speed MPH | gust MPH | rain 1hr in | rain 24hr in | rain mn in | humidity % | barometer mb |
| 20260905234606 | 65 | 115 | 0.0 | 6.0 | 0.00 | 0.00 | 0.00 | 84 | 1012.1 |
| 20260905233045 | 65 | 0 | 0.0 | 6.0 | 0.00 | 0.00 | 0.00 | 84 | 1012.0 |
| 20260905231556 | 66 | 38 | 1.0 | 10.0 | 0.00 | 0.00 | 0.00 | 83 | 1012.0 |
| 20260905230109 | 66 | 45 | 4.0 | 10.0 | 0.00 | 0.00 | 0.00 | 82 | 1012.1 |
| 20260905224544 | 67 | 77 | 4.0 | 12.0 | 0.00 | 0.00 | 0.00 | 81 | 1011.9 |
| 20260905223054 | 67 | 91 | 3.0 | 14.0 | 0.00 | 0.00 | 0.00 | 80 | 1011.8 |
| 20260905221554 | 68 | 117 | 3.0 | 9.0 | 0.00 | 0.00 | 0.00 | 80 | 1011.7 |
| 20260905220045 | 69 | 22 | 2.0 | 12.0 | 0.00 | 0.00 | 0.00 | 79 | 1011.6 |
| 20260905214544 | 70 | 96 | 5.0 | 14.0 | 0.00 | 0.00 | 0.00 | 78 | 1011.2 |
| 20260905213050 | 70 | 35 | 4.0 | 12.0 | 0.00 | 0.00 | 0.00 | 78 | 1011.0 |
| 20260905211551 | 71 | 71 | 3.0 | 13.0 | 0.00 | 0.00 | 0.00 | 76 | 1010.8 |
| 20260905210045 | 72 | 29 | 5.0 | 12.0 | 0.00 | 0.00 | 0.00 | 75 | 1010.6 |
| 20260905204551 | 74 | 5 | 3.0 | 10.0 | 0.00 | 0.00 | 0.00 | 72 | 1010.6 |
| 20260905203054 | 73 | 21 | 5.0 | 13.0 | 0.00 | 0.00 | 0.00 | 73 | 1010.4 |
| 20260905201545 | 72 | 34 | 4.0 | 10.0 | 0.00 | 0.00 | 0.00 | 76 | 1010.4 |
| 20260905200046 | 71 | 42 | 5.0 | 13.0 | 0.00 | 0.00 | 0.00 | 77 | 1010.3 |
| 20260905194552 | 72 | 352 | 3.0 | 9.0 | 0.00 | 0.00 | 0.00 | 76 | 1010.3 |
| 20260905193105 | 71 | 46 | 3.0 | 8.0 | 0.00 | 0.00 | 0.00 | 78 | 1010.3 |
| 20260905191545 | 70 | 14 | 3.0 | 8.0 | 0.00 | 0.00 | 0.00 | 79 | 1010.3 |
| 20260905190044 | 71 | 60 | 4.0 | 12.0 | 0.00 | 0.00 | 0.00 | 78 | 1010.4 |
| 20260905184551 | 72 | 23 | 7.0 | 15.0 | 0.00 | 0.00 | 0.00 | 75 | 1010.4 |
| 20260905183051 | 72 | 38 | 3.0 | 12.0 | 0.00 | 0.00 | 0.00 | 77 | 1010.4 |
| 20260905181544 | 72 | 33 | 5.0 | 12.0 | 0.00 | 0.00 | 0.00 | 77 | 1010.6 |
| 20260905180049 | 72 | 35 | 7.0 | 14.0 | 0.00 | 0.00 | 0.00 | 76 | 1010.6 |
| 20260905174548 | 72 | 49 | 5.0 | 15.0 | 0.00 | 0.00 | 0.00 | 77 | 1010.5 |
| 20260905173044 | 71 | 78 | 4.0 | 9.0 | 0.00 | 0.00 | 0.00 | 78 | 1010.2 |
| 20260905171607 | 72 | 15 | 2.0 | 9.0 | 0.00 | 0.00 | 0.00 | 78 | 1010.1 |
| 20260905170046 | 73 | 350 | 3.0 | 12.0 | 0.00 | 0.00 | 0.00 | 74 | 1009.9 |
| 20260905164545 | 74 | 32 | 5.0 | 11.0 | 0.00 | 0.00 | 0.00 | 73 | 1009.8 |
| 20260905163056 | 74 | 46 | 3.0 | 9.0 | 0.00 | 0.00 | 0.00 | 74 | 1009.7 |
| 20260905161546 | 76 | 26 | 6.0 | 12.0 | 0.00 | 0.00 | 0.00 | 71 | 1009.8 |
| 20260905160044 | 75 | 26 | 4.0 | 10.0 | 0.00 | 0.00 | 0.00 | 74 | 1009.7 |
| 20260905154555 | 74 | 30 | 8.0 | 13.0 | 0.00 | 0.00 | 0.00 | 73 | 1009.9 |
| 20260905153052 | 74 | 352 | 5.0 | 11.0 | 0.00 | 0.00 | 0.00 | 74 | 1009.7 |
| 20260905151549 | 73 | 53 | 7.0 | 14.0 | 0.00 | 0.00 | 0.00 | 75 | 1009.7 |
| 20260905150044 | 72 | 55 | 4.0 | 13.0 | 0.00 | 0.00 | 0.00 | 76 | 1009.5 |
| 20260905144545 | 72 | 34 | 5.0 | 13.0 | 0.00 | 0.00 | 0.00 | 77 | 1009.4 |
| 20260905143052 | 71 | 11 | 5.0 | 13.0 | 0.00 | 0.00 | 0.00 | 79 | 1009.4 |
| 20260905141547 | 71 | 16 | 4.0 | 11.0 | 0.00 | 0.00 | 0.00 | 80 | 1009.6 |
| 20260905140044 | 70 | 21 | 6.0 | 13.0 | 0.00 | 0.00 | 0.00 | 80 | 1009.4 |
| 20260905134553 | 69 | 355 | 5.0 | 13.0 | 0.00 | 0.00 | 0.00 | 81 | 1009.7 |
| 20260905133045 | 69 | 352 | 5.0 | 14.0 | 0.00 | 0.00 | 0.00 | 82 | 1009.8 |
| 20260905131543 | 69 | 24 | 6.0 | 13.0 | 0.00 | 0.00 | 0.00 | 83 | 1009.8 |
| 20260905130050 | 68 | 5 | 5.0 | 14.0 | 0.00 | 0.00 | 0.00 | 82 | 1009.8 |
| 20260905124547 | 68 | 14 | 6.0 | 13.0 | 0.00 | 0.00 | 0.00 | 83 | 1009.8 |
| 20260905123048 | 67 | 28 | 5.0 | 12.0 | 0.00 | 0.00 | 0.00 | 84 | 1009.7 |
| 20260905121543 | 67 | 349 | 3.0 | 8.0 | 0.00 | 0.00 | 0.00 | 87 | 1009.6 |
| 20260905120046 | 66 | 360 | 3.0 | 7.0 | 0.00 | 0.00 | 0.00 | 87 | 1009.4 |
| 20260905114546 | 65 | 342 | 2.0 | 7.0 | 0.00 | 0.00 | 0.00 | 88 | 1009.4 |
| 20260905113056 | 65 | 15 | 1.0 | 9.0 | 0.00 | 0.00 | 0.00 | 89 | 1009.3 |
| 20260905111551 | 64 | 348 | 3.0 | 8.0 | 0.00 | 0.00 | 0.00 | 90 | 1009.2 |
| 20260905110046 | 63 | 349 | 1.0 | 7.0 | 0.00 | 0.00 | 0.00 | 91 | 1009.2 |
| 20260905104545 | 63 | 360 | 1.0 | 4.0 | 0.00 | 0.00 | 0.00 | 91 | 1009.1 |
| 20260905103048 | 63 | 352 | 0.0 | 2.0 | 0.00 | 0.00 | 0.00 | 91 | 1008.9 |
| 20260905101552 | 63 | 5 | 1.0 | 3.0 | 0.00 | 0.00 | 0.00 | 90 | 1008.9 |
| 20260905100045 | 63 | 355 | 1.0 | 3.0 | 0.00 | 0.00 | 0.00 | 89 | 1008.8 |
| 20260905094545 | 64 | 355 | 0.0 | 5.0 | 0.00 | 0.00 | 0.00 | 89 | 1008.7 |
| 20260905093054 | 64 | 5 | 2.0 | 5.0 | 0.00 | 0.00 | 0.00 | 89 | 1008.7 |
| 20260905091546 | 65 | 0 | 2.0 | 7.0 | 0.00 | 0.00 | 0.00 | 87 | 1008.7 |
| 20260905090044 | 65 | 355 | 2.0 | 8.0 | 0.00 | 0.00 | 0.00 | 87 | 1008.7 |
| 20260905084543 | 65 | 360 | 2.0 | 8.0 | 0.00 | 0.00 | 0.00 | 86 | 1008.7 |
| 20260905083047 | 65 | 360 | 3.0 | 10.0 | 0.00 | 0.00 | 0.00 | 86 | 1008.6 |
| 20260905081545 | 65 | 330 | 3.0 | 7.0 | 0.00 | 0.00 | 0.00 | 86 | 1008.6 |
| 20260905080047 | 66 | 348 | 2.0 | 10.0 | 0.00 | 0.00 | 0.00 | 86 | 1008.6 |
| 20260905074554 | 66 | 5 | 3.0 | 7.0 | 0.00 | 0.00 | 0.00 | 87 | 1008.7 |
| 20260905073047 | 66 | 28 | 3.0 | 6.0 | 0.00 | 0.00 | 0.00 | 87 | 1008.8 |
| 20260905071547 | 66 | 352 | 2.0 | 8.0 | 0.00 | 0.00 | 0.00 | 87 | 1009.0 |
| 20260905070055 | 66 | 26 | 2.0 | 7.0 | 0.00 | 0.00 | 0.00 | 87 | 1009.0 |
| 20260905064545 | 66 | 22 | 3.0 | 8.0 | 0.00 | 0.00 | 0.00 | 88 | 1009.1 |
| 20260905063048 | 66 | 24 | 2.0 | 8.0 | 0.00 | 0.00 | 0.00 | 89 | 1009.3 |
| 20260905061553 | 66 | 18 | 1.0 | 2.0 | 0.00 | 0.00 | 0.00 | 90 | 1009.5 |
| 20260905060050 | 66 | 352 | 1.0 | 3.0 | 0.00 | 0.00 | 0.00 | 89 | 1009.5 |
| 20260905054554 | 66 | 332 | 2.0 | 4.0 | 0.00 | 0.00 | 0.00 | 89 | 1009.6 |
| 20260905053047 | 66 | 340 | 1.0 | 3.0 | 0.00 | 0.00 | 0.00 | 89 | 1009.6 |
| 20260905051545 | 67 | 323 | 0.0 | 3.0 | 0.00 | 0.00 | 0.00 | 88 | 1009.7 |
| 20260905050044 | 67 | 346 | 1.0 | 4.0 | 0.00 | 0.00 | 0.00 | 89 | 1009.7 |
| 20260905044549 | 67 | 323 | 0.0 | 3.0 | 0.00 | 0.00 | 0.00 | 87 | 1009.8 |
| 20260905043056 | 67 | 0 | 0.0 | 4.0 | 0.00 | 0.00 | 0.00 | 87 | 1009.7 |
| 20260905041544 | 68 | 0 | 1.0 | 4.0 | 0.00 | 0.00 | 0.00 | 87 | 1009.9 |
| 20260905040054 | 68 | 343 | 0.0 | 4.0 | 0.00 | 0.00 | 0.00 | 86 | 1010.0 |
| 20260905034551 | 68 | 334 | 1.0 | 5.0 | 0.00 | 0.00 | 0.00 | 86 | 1009.8 |
| 20260905033050 | 68 | 352 | 0.0 | 3.0 | 0.00 | 0.00 | 0.00 | 85 | 1009.7 |
| 20260905031549 | 69 | 0 | 0.0 | 4.0 | 0.00 | 0.00 | 0.00 | 85 | 1009.6 |
| 20260905024547 | 70 | 5 | 1.0 | 4.0 | 0.00 | 0.00 | 0.00 | 85 | 1009.5 |
| 20260905023046 | 70 | 12 | 0.0 | 5.0 | 0.00 | 0.00 | 0.00 | 84 | 1009.5 |
| 20260905021545 | 70 | 322 | 2.0 | 8.0 | 0.00 | 0.00 | 0.00 | 83 | 1009.4 |
| 20260905020103 | 70 | 0 | 1.0 | 4.0 | 0.00 | 0.00 | 0.00 | 84 | 1009.3 |
| 20260905014546 | 70 | 350 | 1.0 | 4.0 | 0.00 | 0.00 | 0.00 | 84 | 1009.7 |
| 20260905013050 | 70 | 284 | 0.0 | 4.0 | 0.00 | 0.00 | 0.00 | 83 | 1009.9 |
| 20260905011623 | 71 | 288 | 0.0 | 3.0 | 0.00 | 0.00 | 0.00 | 83 | 1010.0 |
| 20260905010049 | 72 | 19 | 2.0 | 4.0 | 0.00 | 0.00 | 0.00 | 81 | 1010.0 |
| 20260905004549 | 72 | 352 | 0.0 | 4.0 | 0.00 | 0.00 | 0.00 | 79 | 1010.0 |
| 20260905003043 | 73 | 329 | 1.0 | 4.0 | 0.00 | 0.00 | 0.00 | 76 | 1009.8 |
| 20260905001558 | 73 | 280 | 1.0 | 6.0 | 0.00 | 0.00 | 0.00 | 75 | 1009.5 |
| 20260905000047 | 74 | 311 | 1.0 | 5.0 | 0.00 | 0.00 | 0.00 | 75 | 1009.4 |